,,,PA_Meas_PMT16A,,PR_Meas_QMR101_102,,RH_Meas_QMH101,,SR_Meas_QMS101,,TA_Meas_QMH101,,GenWind,,GenWind,
date,time,status,PA,status,PR,status,RH,status,SR,status,TA,status,DirAvg,status,SpdAvg,
2010-08-30, 00:00:05,VALID,1001.65,VALID,0,VALID,91.1358,VALID,0,VALID,23.2134,VALID,46,VALID,0.283984,
2010-08-30, 00:01:05,VALID,1001.65,VALID,0,VALID,91.2503,VALID,0,VALID,23.1939,VALID,46,VALID,0,
2010-08-30, 00:02:05,VALID,1001.62,VALID,0,VALID,91.2731,VALID,0,VALID,23.1744,VALID,46,VALID,0,
2010-08-30, 00:03:05,VALID,1001.63,VALID,0,VALID,91.3494,VALID,0,VALID,23.1336,VALID,46,VALID,0.210156,
2010-08-30, 00:04:05,VALID,1001.62,VALID,0,VALID,91.4639,VALID,0,VALID,23.1354,VALID,46,VALID,0.300781,
2010-08-30, 00:05:05,VALID,1001.63,VALID,0,VALID,91.5554,VALID,0,VALID,23.1354,VALID,73,VALID,0.515234,
2010-08-30, 00:06:05,VALID,1001.62,VALID,0,VALID,91.5173,VALID,0,VALID,23.1159,VALID,112,VALID,0.842969,
2010-08-30, 00:07:05,VALID,1001.59,VALID,0,VALID,91.5707,VALID,0,VALID,23.1159,VALID,110,VALID,0.847266,
2010-08-30, 00:08:05,VALID,1001.59,VALID,0,VALID,91.6775,VALID,0,VALID,23.1354,VALID,110,VALID,0.867969,
2010-08-30, 00:09:05,VALID,1001.59,VALID,0,VALID,91.7767,VALID,0,VALID,23.1549,VALID,119,VALID,1.1043,
2010-08-30, 00:10:05,VALID,1001.56,VALID,0,VALID,91.7462,VALID,0,VALID,23.1549,VALID,119,VALID,1.09648,
2010-08-30, 00:11:05,VALID,1001.58,VALID,0,VALID,91.6546,VALID,0,VALID,23.1744,VALID,119,VALID,0.666406,
2010-08-30, 00:12:05,VALID,1001.6,VALID,0,VALID,91.5554,VALID,0,VALID,23.1531,VALID,119,VALID,0.338672,
2010-08-30, 00:13:05,VALID,1001.57,VALID,0,VALID,91.4791,VALID,0,VALID,23.1354,VALID,119,VALID,0.485156,
2010-08-30, 00:14:05,VALID,1001.59,VALID,0,VALID,91.4563,VALID,0,VALID,23.0946,VALID,119,VALID,0.583203,
2010-08-30, 00:15:05,VALID,1001.6,VALID,0,VALID,91.4486,VALID,0,VALID,23.1159,VALID,120,VALID,1.27266,
2010-08-30, 00:16:05,VALID,1001.57,VALID,0,VALID,91.4105,VALID,0,VALID,23.0751,VALID,119,VALID,0.873438,
2010-08-30, 00:17:05,VALID,1001.58,VALID,0,VALID,91.4334,VALID,0,VALID,23.0769,VALID,118,VALID,0.858984,
2010-08-30, 00:18:05,VALID,1001.56,VALID,0,VALID,91.4791,VALID,0,VALID,23.0964,VALID,125,VALID,0.822656,
2010-08-30, 00:19:05,VALID,1001.56,VALID,0,VALID,91.4868,VALID,0,VALID,23.0769,VALID,125,VALID,0.525781,
2010-08-30, 00:20:04,VALID,1001.53,VALID,0,VALID,91.4715,VALID,0,VALID,23.0769,VALID,125,VALID,0.248047,
2010-08-30, 00:21:04,VALID,1001.56,VALID,0,VALID,91.441,VALID,0,VALID,23.0378,VALID,125,VALID,0.00195313,
2010-08-30, 00:22:04,VALID,1001.51,VALID,0,VALID,91.4257,VALID,0,VALID,23.0378,VALID,125,VALID,0.00664063,
2010-08-30, 00:23:04,VALID,1001.52,VALID,0,VALID,91.4334,VALID,0,VALID,23.0183,VALID,125,VALID,0,
2010-08-30, 00:24:04,VALID,1001.48,VALID,0,VALID,91.4944,VALID,0,VALID,22.9988,VALID,125,VALID,0,
2010-08-30, 00:25:04,VALID,1001.49,VALID,0,VALID,91.586,VALID,0,VALID,22.9793,VALID,101,VALID,0,
2010-08-30, 00:26:04,VALID,1001.46,VALID,0,VALID,91.6546,VALID,0,VALID,22.9598,VALID,71,VALID,0,
2010-08-30, 00:27:04,VALID,1001.44,VALID,0,VALID,91.7843,VALID,0,VALID,22.9598,VALID,72,VALID,0.867578,
2010-08-30, 00:28:04,VALID,1001.42,VALID,0,VALID,91.9674,VALID,0,VALID,22.9598,VALID,75,VALID,0.727734,
2010-08-30, 00:29:04,VALID,1001.4,VALID,0,VALID,92.0209,VALID,0,VALID,22.9598,VALID,55,VALID,1.03242,
2010-08-30, 00:30:04,VALID,1001.39,VALID,0,VALID,91.9827,VALID,0,VALID,22.9403,VALID,43,VALID,1.15117,
2010-08-30, 00:31:04,VALID,1001.39,VALID,0,VALID,91.8911,VALID,0,VALID,22.9208,VALID,41,VALID,0.886328,
2010-08-30, 00:32:04,VALID,1001.35,VALID,0,VALID,91.8225,VALID,0,VALID,22.9208,VALID,41,VALID,0.69375,
2010-08-30, 00:33:04,VALID,1001.34,VALID,0,VALID,91.708,VALID,0,VALID,22.8818,VALID,41,VALID,0.593359,
2010-08-30, 00:34:04,VALID,1001.37,VALID,0,VALID,91.7157,VALID,0,VALID,22.841,VALID,41,VALID,0.702344,
2010-08-30, 00:35:04,VALID,1001.34,VALID,0,VALID,91.8606,VALID,0,VALID,22.8623,VALID,41,VALID,0.645703,
2010-08-30, 00:36:04,VALID,1001.37,VALID,0,VALID,92.0285,VALID,0,VALID,22.8623,VALID,41,VALID,0.601953,
2010-08-30, 00:37:04,VALID,1001.33,VALID,0,VALID,92.1277,VALID,0,VALID,22.8623,VALID,41,VALID,0.456641,
2010-08-30, 00:38:04,VALID,1001.35,VALID,0,VALID,92.1963,VALID,0,VALID,22.8623,VALID,41,VALID,0.419531,
2010-08-30, 00:39:04,VALID,1001.32,VALID,0,VALID,92.1887,VALID,0,VALID,22.8427,VALID,41,VALID,0.0210938,
2010-08-30, 00:40:04,VALID,1001.31,VALID,0,VALID,92.1811,VALID,0,VALID,22.8232,VALID,41,VALID,0,
2010-08-30, 00:41:04,VALID,1001.3,VALID,0,VALID,92.1506,VALID,0,VALID,22.7825,VALID,41,VALID,0.159375,
2010-08-30, 00:42:04,VALID,1001.3,VALID,0,VALID,92.1582,VALID,0,VALID,22.7842,VALID,41,VALID,0.270312,
2010-08-30, 00:43:04,VALID,1001.3,VALID,0,VALID,92.1277,VALID,0,VALID,22.7842,VALID,41,VALID,0.597656,
2010-08-30, 00:44:04,VALID,1001.31,VALID,0,VALID,92.1124,VALID,0,VALID,22.7647,VALID,41,VALID,0.725781,
2010-08-30, 00:45:04,VALID,1001.29,VALID,0,VALID,92.0285,VALID,0,VALID,22.7842,VALID,41,VALID,0.672266,
2010-08-30, 00:46:04,VALID,1001.33,VALID,0,VALID,91.8988,VALID,0,VALID,22.7842,VALID,41,VALID,0.440234,
2010-08-30, 00:47:04,VALID,1001.33,VALID,0,VALID,91.7691,VALID,0,VALID,22.7647,VALID,40,VALID,0.573828,
2010-08-30, 00:48:04,VALID,1001.35,VALID,0,VALID,91.6546,VALID,0,VALID,22.7452,VALID,33,VALID,0.755078,
2010-08-30, 00:49:04,VALID,1001.37,VALID,0,VALID,91.5478,VALID,0,VALID,22.7045,VALID,28,VALID,0.807031,
2010-08-30, 00:50:04,VALID,1001.33,VALID,0,VALID,91.5173,VALID,0,VALID,22.6672,VALID,28,VALID,0.763672,
2010-08-30, 00:51:04,VALID,1001.36,VALID,0,VALID,91.6317,VALID,0,VALID,22.6867,VALID,28,VALID,0.613672,
2010-08-30, 00:52:04,VALID,1001.33,VALID,0,VALID,91.6699,VALID,0,VALID,22.6477,VALID,28,VALID,0.297266,
2010-08-30, 00:53:04,VALID,1001.32,VALID,0,VALID,91.7614,VALID,0,VALID,22.6477,VALID,28,VALID,0.392969,
2010-08-30, 00:54:04,VALID,1001.29,VALID,0,VALID,91.9293,VALID,0,VALID,22.6672,VALID,23,VALID,0.579297,
2010-08-30, 00:55:04,VALID,1001.3,VALID,0,VALID,92.0056,VALID,0,VALID,22.6867,VALID,15,VALID,0.546875,
2010-08-30, 00:56:04,VALID,1001.29,VALID,0,VALID,91.9751,VALID,0,VALID,22.6672,VALID,15,VALID,0.55,
2010-08-30, 00:57:04,VALID,1001.28,VALID,0,VALID,92.0514,VALID,0,VALID,22.6672,VALID,30,VALID,0.659375,
2010-08-30, 00:58:04,VALID,1001.29,VALID,0,VALID,92.0666,VALID,0,VALID,22.6672,VALID,49,VALID,0.916016,
2010-08-30, 00:59:04,VALID,1001.28,VALID,0,VALID,92.0743,VALID,0,VALID,22.6477,VALID,61,VALID,0.760547,
2010-08-30, 01:00:04,VALID,1001.29,VALID,0,VALID,92.12,VALID,0,VALID,22.6477,VALID,88,VALID,1.01484,
2010-08-30, 01:01:04,VALID,1001.25,VALID,0,VALID,92.1811,VALID,0,VALID,22.6477,VALID,94,VALID,0.963281,
2010-08-30, 01:02:04,VALID,1001.25,VALID,0,VALID,92.2726,VALID,0,VALID,22.6867,VALID,94,VALID,0.794141,
2010-08-30, 01:03:04,VALID,1001.23,VALID,0,VALID,92.3031,VALID,0,VALID,22.7062,VALID,101,VALID,0.839453,
2010-08-30, 01:04:04,VALID,1001.22,VALID,0,VALID,92.2421,VALID,0,VALID,22.7257,VALID,106,VALID,0.823438,
2010-08-30, 01:05:04,VALID,1001.21,VALID,0,VALID,92.1048,VALID,0,VALID,22.7257,VALID,106,VALID,1.03828,
2010-08-30, 01:06:04,VALID,1001.2,VALID,0,VALID,91.9293,VALID,0,VALID,22.7257,VALID,106,VALID,0.851563,
2010-08-30, 01:07:04,VALID,1001.18,VALID,0,VALID,91.8225,VALID,0,VALID,22.6867,VALID,106,VALID,0.696875,
2010-08-30, 01:08:04,VALID,1001.16,VALID,0,VALID,91.7996,VALID,0,VALID,22.6867,VALID,106,VALID,0.551562,
2010-08-30, 01:09:04,VALID,1001.17,VALID,0,VALID,91.8988,VALID,0,VALID,22.7062,VALID,136,VALID,0.703516,
2010-08-30, 01:10:04,VALID,1001.13,VALID,0,VALID,92.0132,VALID,0,VALID,22.7062,VALID,145,VALID,0.492188,
2010-08-30, 01:11:04,VALID,1001.11,VALID,0,VALID,92.0971,VALID,0,VALID,22.7435,VALID,145,VALID,0.359766,
2010-08-30, 01:12:04,VALID,1001.14,VALID,0,VALID,92.0666,VALID,0,VALID,22.7842,VALID,145,VALID,0.268359,
2010-08-30, 01:13:04,VALID,1001.1,VALID,0,VALID,91.9293,VALID,0,VALID,22.8037,VALID,145,VALID,0.355469,
2010-08-30, 01:14:04,VALID,1001.12,VALID,0,VALID,91.7309,VALID,0,VALID,22.8215,VALID,145,VALID,0.439063,
2010-08-30, 01:15:04,VALID,1001.1,VALID,0,VALID,91.4563,VALID,0,VALID,22.8623,VALID,145,VALID,0.502344,
2010-08-30, 01:16:04,VALID,1001.13,VALID,0,VALID,91.2579,VALID,0,VALID,22.8818,VALID,145,VALID,0.589844,
2010-08-30, 01:17:04,VALID,1001.13,VALID,0,VALID,91.1129,VALID,0,VALID,22.9208,VALID,145,VALID,0.746875,
2010-08-30, 01:18:04,VALID,1001.11,VALID,0,VALID,90.9985,VALID,0,VALID,22.9793,VALID,156,VALID,0.732031,
2010-08-30, 01:19:04,VALID,1001.11,VALID,0,VALID,90.823,VALID,0,VALID,23.0183,VALID,144,VALID,0.794531,
2010-08-30, 01:20:04,VALID,1001.11,VALID,0,VALID,90.7772,VALID,0,VALID,23.0769,VALID,137,VALID,0.746094,
2010-08-30, 01:21:04,VALID,1001.08,VALID,0,VALID,90.5941,VALID,0,VALID,23.0964,VALID,137,VALID,0.432422,
2010-08-30, 01:22:04,VALID,1001.08,VALID,0,VALID,90.5102,VALID,0,VALID,23.0964,VALID,137,VALID,0.0570313,
2010-08-30, 01:23:04,VALID,1001.06,VALID,0,VALID,90.4873,VALID,0,VALID,23.1159,VALID,137,VALID,0,
2010-08-30, 01:24:04,VALID,1001.04,VALID,0,VALID,90.3728,VALID,0,VALID,23.1159,VALID,137,VALID,0,
2010-08-30, 01:25:04,VALID,1001.01,VALID,0,VALID,90.3957,VALID,0,VALID,23.0964,VALID,137,VALID,0,
2010-08-30, 01:26:04,VALID,1001.02,VALID,0,VALID,90.2966,VALID,0,VALID,23.0769,VALID,137,VALID,0,
2010-08-30, 01:27:04,VALID,1000.99,VALID,0,VALID,90.0829,VALID,0,VALID,23.0183,VALID,137,VALID,0,
2010-08-30, 01:28:04,VALID,1000.94,VALID,0,VALID,90.0677,VALID,0,VALID,22.9385,VALID,137,VALID,0,
2010-08-30, 01:29:04,VALID,1000.97,VALID,0,VALID,90.2813,VALID,0,VALID,22.8818,VALID,137,VALID,0,
2010-08-30, 01:30:04,VALID,1000.92,VALID,0,VALID,90.5102,VALID,0,VALID,22.8037,VALID,137,VALID,0,
2010-08-30, 01:31:04,VALID,1000.94,VALID,0,VALID,90.7162,VALID,0,VALID,22.7452,VALID,137,VALID,0,
2010-08-30, 01:32:04,VALID,1000.92,VALID,0,VALID,90.9069,VALID,0,VALID,22.6867,VALID,137,VALID,0,
2010-08-30, 01:33:04,VALID,1000.93,VALID,0,VALID,91.2197,VALID,0,VALID,22.6672,VALID,137,VALID,0,
2010-08-30, 01:34:04,VALID,1000.95,VALID,0,VALID,91.3342,VALID,0,VALID,22.6069,VALID,131,VALID,0.530859,
2010-08-30, 01:35:04,VALID,1000.93,VALID,0,VALID,91.8835,VALID,0,VALID,22.646,VALID,74,VALID,0.867969,
2010-08-30, 01:36:04,VALID,1000.95,VALID,0,VALID,92.1353,VALID,0,VALID,22.7062,VALID,74,VALID,0.910937,
2010-08-30, 01:37:04,VALID,1000.96,VALID,0,VALID,92.1506,VALID,0,VALID,22.7452,VALID,74,VALID,1.01094,
2010-08-30, 01:38:04,VALID,1000.94,VALID,0,VALID,92.0971,VALID,0,VALID,22.7647,VALID,74,VALID,1.05703,
2010-08-30, 01:39:04,VALID,1000.96,VALID,0,VALID,91.9217,VALID,0,VALID,22.8232,VALID,74,VALID,0.998047,
2010-08-30, 01:40:04,VALID,1000.93,VALID,0,VALID,91.6699,VALID,0,VALID,22.8623,VALID,75,VALID,0.911328,
2010-08-30, 01:41:04,VALID,1000.89,VALID,0,VALID,91.5783,VALID,0,VALID,22.9013,VALID,76,VALID,0.952734,
2010-08-30, 01:42:04,VALID,1000.87,VALID,0,VALID,91.3418,VALID,0,VALID,22.9208,VALID,88,VALID,0.918359,
2010-08-30, 01:43:04,VALID,1000.84,VALID,0,VALID,91.1892,VALID,0,VALID,22.9208,VALID,96,VALID,0.926953,
2010-08-30, 01:44:04,VALID,1000.84,VALID,0,VALID,91.1358,VALID,0,VALID,22.8995,VALID,99,VALID,1.11992,
2010-08-30, 01:45:04,VALID,1000.84,VALID,0,VALID,91.0824,VALID,0,VALID,22.9208,VALID,102,VALID,1.05039,
2010-08-30, 01:46:04,VALID,1000.85,VALID,0,VALID,91.1206,VALID,0,VALID,22.9208,VALID,102,VALID,0.937109,
2010-08-30, 01:47:04,VALID,1000.88,VALID,0,VALID,90.884,VALID,0,VALID,22.8818,VALID,102,VALID,0.871875,
2010-08-30, 01:48:04,VALID,1000.91,VALID,0,VALID,90.7238,VALID,0,VALID,22.8427,VALID,102,VALID,1.00742,
2010-08-30, 01:49:04,VALID,1000.91,VALID,0,VALID,90.7467,VALID,0,VALID,22.8037,VALID,102,VALID,1.05469,
2010-08-30, 01:50:04,VALID,1000.92,VALID,0,VALID,91.029,VALID,0,VALID,22.7842,VALID,102,VALID,1.10234,
2010-08-30, 01:51:04,VALID,1000.91,VALID,0,VALID,91.1282,VALID,0,VALID,22.7452,VALID,101,VALID,0.879297,
2010-08-30, 01:52:04,VALID,1000.93,VALID,0,VALID,91.1129,VALID,0,VALID,22.7062,VALID,101,VALID,0.715234,
2010-08-30, 01:53:04,VALID,1000.89,VALID,0,VALID,91.0977,VALID,0,VALID,22.646,VALID,101,VALID,0.637109,
2010-08-30, 01:54:04,VALID,1000.91,VALID,0,VALID,91.1587,VALID,0,VALID,22.6087,VALID,89,VALID,0.702344,
2010-08-30, 01:55:04,VALID,1000.91,VALID,0,VALID,91.1968,VALID,0,VALID,22.5696,VALID,78,VALID,0.88125,
2010-08-30, 01:56:04,VALID,1000.86,VALID,0,VALID,91.2045,VALID,0,VALID,22.5501,VALID,72,VALID,0.866406,
2010-08-30, 01:57:04,VALID,1000.89,VALID,0,VALID,91.3266,VALID,0,VALID,22.5306,VALID,72,VALID,0.775,
2010-08-30, 01:58:04,VALID,1000.86,VALID,0,VALID,91.4181,VALID,0,VALID,22.5306,VALID,72,VALID,0.494531,
2010-08-30, 01:59:04,VALID,1000.84,VALID,0,VALID,91.4944,VALID,0,VALID,22.4916,VALID,72,VALID,0.409766,
2010-08-30, 02:00:04,VALID,1000.82,VALID,0,VALID,91.5631,VALID,0,VALID,22.5111,VALID,85,VALID,0.969922,
2010-08-30, 02:01:04,VALID,1000.78,VALID,0,VALID,91.6317,VALID,0,VALID,22.5306,VALID,72,VALID,0.723047,
2010-08-30, 02:02:04,VALID,1000.77,VALID,0,VALID,91.502,VALID,0,VALID,22.5111,VALID,69,VALID,0.442187,
2010-08-30, 02:03:04,VALID,1000.77,VALID,0,VALID,91.2808,VALID,0,VALID,22.4916,VALID,69,VALID,0.0492188,
2010-08-30, 02:04:04,VALID,1000.73,VALID,0,VALID,91.0977,VALID,0,VALID,22.4119,VALID,69,VALID,0,
2010-08-30, 02:05:04,VALID,1000.72,VALID,0,VALID,91.1053,VALID,0,VALID,22.4331,VALID,69,VALID,0.364453,
2010-08-30, 02:06:04,VALID,1000.69,VALID,0,VALID,91.2808,VALID,0,VALID,22.4136,VALID,66,VALID,0.471484,
2010-08-30, 02:07:04,VALID,1000.65,VALID,0,VALID,91.3494,VALID,0,VALID,22.3941,VALID,66,VALID,0.358984,
2010-08-30, 02:08:04,VALID,1000.67,VALID,0,VALID,91.296,VALID,0,VALID,22.3551,VALID,65,VALID,0.625781,
2010-08-30, 02:09:04,VALID,1000.67,VALID,0,VALID,91.235,VALID,0,VALID,22.3161,VALID,65,VALID,0.528906,
2010-08-30, 02:10:04,VALID,1000.59,VALID,0,VALID,91.2045,VALID,0,VALID,22.2771,VALID,53,VALID,0.450391,
2010-08-30, 02:11:04,VALID,1000.6,VALID,0,VALID,91.2503,VALID,0,VALID,22.2381,VALID,53,VALID,0.164453,
2010-08-30, 02:12:04,VALID,1000.59,VALID,0,VALID,91.2655,VALID,0,VALID,22.1795,VALID,53,VALID,0,
2010-08-30, 02:13:04,VALID,1000.6,VALID,0,VALID,91.3189,VALID,0,VALID,22.1405,VALID,53,VALID,0.210547,
2010-08-30, 02:14:04,VALID,1000.57,VALID,0,VALID,91.4486,VALID,0,VALID,22.121,VALID,57,VALID,0.606641,
2010-08-30, 02:15:04,VALID,1000.55,VALID,0,VALID,91.6928,VALID,0,VALID,22.1405,VALID,85,VALID,1.33633,
2010-08-30, 02:16:04,VALID,1000.54,VALID,0,VALID,91.7691,VALID,0,VALID,22.1795,VALID,81,VALID,1.48906,
2010-08-30, 02:17:04,VALID,1000.52,VALID,0,VALID,91.8683,VALID,0,VALID,22.2186,VALID,83,VALID,1.40117,
2010-08-30, 02:18:04,VALID,1000.51,VALID,0,VALID,91.998,VALID,0,VALID,22.2381,VALID,79,VALID,1.24297,
2010-08-30, 02:19:04,VALID,1000.47,VALID,0,VALID,92.1124,VALID,0,VALID,22.2576,VALID,70,VALID,1.31523,
2010-08-30, 02:20:04,VALID,1000.47,VALID,0,VALID,92.1963,VALID,0,VALID,22.2771,VALID,73,VALID,1.14805,
2010-08-30, 02:21:04,VALID,1000.47,VALID,0,VALID,92.2726,VALID,0,VALID,22.2754,VALID,74,VALID,0.898438,
2010-08-30, 02:22:04,VALID,1000.43,VALID,0,VALID,92.2726,VALID,0,VALID,22.2949,VALID,58,VALID,0.687891,
2010-08-30, 02:23:04,VALID,1000.42,VALID,0,VALID,92.1429,VALID,0,VALID,22.2966,VALID,57,VALID,0.519922,
2010-08-30, 02:24:04,VALID,1000.46,VALID,0,VALID,91.9445,VALID,0,VALID,22.2364,VALID,57,VALID,0.258594,
2010-08-30, 02:25:04,VALID,1000.46,VALID,0,VALID,91.7843,VALID,0,VALID,22.2576,VALID,57,VALID,0.246094,
2010-08-30, 02:26:04,VALID,1000.45,VALID,0,VALID,91.6928,VALID,0,VALID,22.2381,VALID,57,VALID,0.223047,
2010-08-30, 02:27:04,VALID,1000.46,VALID,0,VALID,91.6928,VALID,0,VALID,22.199,VALID,50,VALID,0.449219,
2010-08-30, 02:28:04,VALID,1000.46,VALID,0,VALID,91.7767,VALID,0,VALID,22.1779,VALID,41,VALID,0.586719,
2010-08-30, 02:29:04,VALID,1000.47,VALID,0,VALID,91.8454,VALID,0,VALID,22.1584,VALID,11,VALID,0.871875,
2010-08-30, 02:30:04,VALID,1000.43,VALID,0,VALID,91.9217,VALID,0,VALID,22.16,VALID,4,VALID,0.801562,
2010-08-30, 02:31:04,VALID,1000.48,VALID,0,VALID,92.0209,VALID,0,VALID,22.121,VALID,354,VALID,0.797656,
2010-08-30, 02:32:04,VALID,1000.45,VALID,0,VALID,92.0971,VALID,0,VALID,22.1015,VALID,2,VALID,0.667969,
2010-08-30, 02:33:04,VALID,1000.46,VALID,0,VALID,92.1811,VALID,0,VALID,22.082,VALID,9,VALID,0.876172,
2010-08-30, 02:34:04,VALID,1000.44,VALID,0,VALID,92.3184,VALID,0,VALID,22.0803,VALID,9,VALID,0.916406,
2010-08-30, 02:35:04,VALID,1000.42,VALID,0,VALID,92.3794,VALID,0,VALID,22.0803,VALID,9,VALID,0.941016,
2010-08-30, 02:36:04,VALID,1000.42,VALID,0,VALID,92.4328,VALID,0,VALID,22.1015,VALID,9,VALID,1.04297,
2010-08-30, 02:37:04,VALID,1000.4,VALID,0,VALID,92.4176,VALID,0,VALID,22.1422,VALID,9,VALID,1.27266,
2010-08-30, 02:38:04,VALID,1000.41,VALID,0,VALID,92.3337,VALID,0,VALID,22.1617,VALID,14,VALID,0.907031,
2010-08-30, 02:39:04,VALID,1000.44,VALID,0,VALID,92.204,VALID,0,VALID,22.1617,VALID,14,VALID,0.507422,
2010-08-30, 02:40:04,VALID,1000.42,VALID,0,VALID,92.0666,VALID,0,VALID,22.1422,VALID,14,VALID,0.25,
2010-08-30, 02:41:04,VALID,1000.42,VALID,0,VALID,91.9903,VALID,0,VALID,22.1422,VALID,14,VALID,0.339844,
2010-08-30, 02:42:04,VALID,1000.42,VALID,0,VALID,91.9751,VALID,0,VALID,22.121,VALID,14,VALID,0.228125,
2010-08-30, 02:43:04,VALID,1000.44,VALID,0,VALID,91.9827,VALID,0,VALID,22.1422,VALID,14,VALID,0,
2010-08-30, 02:44:04,VALID,1000.43,VALID,0,VALID,92.0056,VALID,0,VALID,22.1422,VALID,14,VALID,0,
2010-08-30, 02:45:04,VALID,1000.42,VALID,0,VALID,92.0743,VALID,0,VALID,22.1422,VALID,14,VALID,0.397656,
2010-08-30, 02:46:04,VALID,1000.4,VALID,0,VALID,92.0819,VALID,0,VALID,22.1422,VALID,14,VALID,0.692578,
2010-08-30, 02:47:04,VALID,1000.4,VALID,0,VALID,92.0971,VALID,0,VALID,22.121,VALID,14,VALID,0.725,
2010-08-30, 02:48:04,VALID,1000.39,VALID,0,VALID,92.0132,VALID,0,VALID,22.1227,VALID,12,VALID,0.898828,
2010-08-30, 02:49:04,VALID,1000.4,VALID,0,VALID,91.9217,VALID,0,VALID,22.082,VALID,3,VALID,0.923828,
2010-08-30, 02:50:04,VALID,1000.41,VALID,0,VALID,91.9598,VALID,0,VALID,22.1422,VALID,1,VALID,0.776172,
2010-08-30, 02:51:04,VALID,1000.45,VALID,0,VALID,91.9522,VALID,0,VALID,22.1405,VALID,1,VALID,0.285156,
2010-08-30, 02:52:04,VALID,1000.45,VALID,0,VALID,91.9293,VALID,0,VALID,22.1795,VALID,315,VALID,0.521484,
2010-08-30, 02:53:04,VALID,1000.46,VALID,0,VALID,91.8835,VALID,0,VALID,22.199,VALID,315,VALID,0.321094,
2010-08-30, 02:54:04,VALID,1000.47,VALID,0,VALID,91.8148,VALID,0,VALID,22.2186,VALID,315,VALID,0.373828,
2010-08-30, 02:55:04,VALID,1000.48,VALID,0,VALID,91.7309,VALID,0,VALID,22.1795,VALID,360,VALID,0.776953,
2010-08-30, 02:56:04,VALID,1000.46,VALID,0,VALID,91.6317,VALID,0,VALID,22.1795,VALID,17,VALID,0.982813,
2010-08-30, 02:57:04,VALID,1000.46,VALID,0,VALID,91.708,VALID,0,VALID,22.1795,VALID,29,VALID,0.952734,
2010-08-30, 02:58:04,VALID,1000.46,VALID,0,VALID,91.6699,VALID,0,VALID,22.16,VALID,29,VALID,0.901563,
2010-08-30, 02:59:04,VALID,1000.47,VALID,0,VALID,91.5326,VALID,0,VALID,22.16,VALID,30,VALID,0.739453,
2010-08-30, 03:00:04,VALID,1000.44,VALID,0,VALID,91.2808,VALID,0,VALID,22.1405,VALID,31,VALID,0.237891,
2010-08-30, 03:01:04,VALID,1000.43,VALID,0,VALID,91.2045,VALID,0,VALID,22.0998,VALID,31,VALID,0.15,
2010-08-30, 03:02:04,VALID,1000.41,VALID,0,VALID,91.2808,VALID,0,VALID,22.082,VALID,31,VALID,0,
2010-08-30, 03:03:04,VALID,1000.42,VALID,0,VALID,91.3113,VALID,0,VALID,22.0625,VALID,31,VALID,0,
2010-08-30, 03:04:04,VALID,1000.38,VALID,0,VALID,91.4868,VALID,0.112286,VALID,22.0413,VALID,31,VALID,0,
2010-08-30, 03:05:04,VALID,1000.4,VALID,0,VALID,91.6851,VALID,0,VALID,22.043,VALID,31,VALID,0,
2010-08-30, 03:06:04,VALID,1000.42,VALID,0,VALID,91.6546,VALID,0,VALID,22.0218,VALID,31,VALID,0,
2010-08-30, 03:07:04,VALID,1000.43,VALID,0,VALID,91.6012,VALID,0.112286,VALID,22.0023,VALID,31,VALID,0,
2010-08-30, 03:08:04,VALID,1000.44,VALID,0,VALID,91.5326,VALID,0,VALID,21.9438,VALID,31,VALID,0,
2010-08-30, 03:09:04,VALID,1000.46,VALID,0,VALID,91.5173,VALID,0,VALID,21.9455,VALID,31,VALID,0.299219,
2010-08-30, 03:10:04,VALID,1000.45,VALID,0,VALID,91.7614,VALID,0,VALID,21.9845,VALID,31,VALID,0.477344,
2010-08-30, 03:11:04,VALID,1000.45,VALID,0,VALID,91.8072,VALID,0.112286,VALID,21.9828,VALID,31,VALID,0.143359,
2010-08-30, 03:12:04,VALID,1000.47,VALID,0,VALID,91.7538,VALID,0,VALID,22.004,VALID,31,VALID,0,
2010-08-30, 03:13:04,VALID,1000.48,VALID,0,VALID,91.5936,VALID,0,VALID,22.0218,VALID,31,VALID,0.342187,
2010-08-30, 03:14:04,VALID,1000.46,VALID,0,VALID,91.5936,VALID,0,VALID,22.0625,VALID,30,VALID,0.389062,
2010-08-30, 03:15:04,VALID,1000.48,VALID,0,VALID,91.7309,VALID,0,VALID,22.1194,VALID,302,VALID,0.519531,
2010-08-30, 03:16:04,VALID,1000.48,VALID,0,VALID,91.7157,VALID,0.112286,VALID,22.16,VALID,302,VALID,0.294922,
2010-08-30, 03:17:04,VALID,1000.48,VALID,0,VALID,91.6851,VALID,0,VALID,22.1389,VALID,302,VALID,0.249219,
2010-08-30, 03:18:04,VALID,1000.5,VALID,0,VALID,91.6699,VALID,0,VALID,22.1795,VALID,302,VALID,0.214844,
2010-08-30, 03:19:04,VALID,1000.47,VALID,0,VALID,91.6699,VALID,0,VALID,22.1779,VALID,302,VALID,0.228516,
2010-08-30, 03:20:04,VALID,1000.51,VALID,0,VALID,91.6699,VALID,0,VALID,22.199,VALID,302,VALID,0.328516,
2010-08-30, 03:21:04,VALID,1000.51,VALID,0,VALID,91.6546,VALID,0,VALID,22.2186,VALID,302,VALID,0.361719,
2010-08-30, 03:22:04,VALID,1000.51,VALID,0,VALID,91.647,VALID,0,VALID,22.2186,VALID,302,VALID,0.564844,
2010-08-30, 03:23:04,VALID,1000.5,VALID,0,VALID,91.586,VALID,0,VALID,22.1779,VALID,302,VALID,0.384375,
2010-08-30, 03:24:04,VALID,1000.5,VALID,0,VALID,91.5402,VALID,0.112286,VALID,22.1795,VALID,302,VALID,0.266797,
2010-08-30, 03:25:04,VALID,1000.5,VALID,0,VALID,91.5554,VALID,0,VALID,22.1405,VALID,302,VALID,0.266406,
2010-08-30, 03:26:04,VALID,1000.53,VALID,0,VALID,91.4181,VALID,0.112286,VALID,22.082,VALID,302,VALID,0.523047,
2010-08-30, 03:27:04,VALID,1000.52,VALID,0,VALID,91.4028,VALID,0.112286,VALID,22.0235,VALID,302,VALID,0.553125,
2010-08-30, 03:28:04,VALID,1000.55,VALID,0,VALID,91.4028,VALID,0,VALID,21.9438,VALID,302,VALID,0.513281,
2010-08-30, 03:29:04,VALID,1000.54,VALID,0,VALID,91.5783,VALID,0,VALID,21.926,VALID,302,VALID,0.357422,
2010-08-30, 03:30:04,VALID,1000.54,VALID,0,VALID,91.7996,VALID,0,VALID,21.8658,VALID,302,VALID,0.382813,
2010-08-30, 03:31:04,VALID,1000.58,VALID,0,VALID,91.9827,VALID,0.112286,VALID,21.8675,VALID,302,VALID,0.280469,
2010-08-30, 03:32:04,VALID,1000.57,VALID,0,VALID,92.1048,VALID,0.112286,VALID,21.8285,VALID,302,VALID,0,
2010-08-30, 03:33:04,VALID,1000.56,VALID,0,VALID,92.2345,VALID,0,VALID,21.8073,VALID,302,VALID,0,
2010-08-30, 03:34:04,VALID,1000.58,VALID,0,VALID,92.326,VALID,0,VALID,21.7683,VALID,302,VALID,0,
2010-08-30, 03:35:04,VALID,1000.57,VALID,0,VALID,92.41,VALID,0.112286,VALID,21.7488,VALID,302,VALID,0,
2010-08-30, 03:36:04,VALID,1000.58,VALID,0,VALID,92.471,VALID,0,VALID,21.731,VALID,302,VALID,0,
2010-08-30, 03:37:04,VALID,1000.57,VALID,0,VALID,92.6388,VALID,0,VALID,21.731,VALID,302,VALID,0.204297,
2010-08-30, 03:38:04,VALID,1000.54,VALID,0,VALID,92.8143,VALID,0,VALID,21.7716,VALID,302,VALID,0.523047,
2010-08-30, 03:39:04,VALID,1000.56,VALID,0,VALID,92.9135,VALID,0,VALID,21.7505,VALID,41,VALID,0.859766,
2010-08-30, 03:40:04,VALID,1000.54,VALID,0,VALID,93.028,VALID,0,VALID,21.7911,VALID,53,VALID,0.810938,
2010-08-30, 03:41:04,VALID,1000.54,VALID,0,VALID,92.9593,VALID,0,VALID,21.7326,VALID,56,VALID,0.659375,
2010-08-30, 03:42:04,VALID,1000.54,VALID,0,VALID,92.9364,VALID,0,VALID,21.7131,VALID,56,VALID,0.7125,
2010-08-30, 03:43:04,VALID,1000.54,VALID,0,VALID,92.8906,VALID,0,VALID,21.6936,VALID,56,VALID,0.521484,
2010-08-30, 03:44:04,VALID,1000.54,VALID,0,VALID,92.822,VALID,0,VALID,21.6741,VALID,56,VALID,0.336719,
2010-08-30, 03:45:04,VALID,1000.51,VALID,0,VALID,92.7304,VALID,0,VALID,21.6335,VALID,56,VALID,0.354688,
2010-08-30, 03:46:04,VALID,1000.53,VALID,0,VALID,92.6236,VALID,0,VALID,21.6156,VALID,55,VALID,0.561328,
2010-08-30, 03:47:04,VALID,1000.53,VALID,0,VALID,92.6694,VALID,0,VALID,21.6335,VALID,47,VALID,0.85625,